Simultaneous Nadir Overpasses (SNOs) Predictions

Prediction of SNOs between NOAA-20 and LANDSAT-8 Satellite Orbit:

Table of predicted SNOs for the next 14.0 days since TLE Epoch: 2/24/2024
Index Date (NOAA-20) Time (NOAA-20) Lat,Lon (NOAA-20) SZA (NOAA-20 ) Date (LANDSAT-8) Time (LANDSAT-8) Lat,Lon (LANDSAT-8) SZA (LANDSAT-8 ) Distance(km) Time Diff (sec)
1 02/25/2024 22:49:41 70.12,-166.09 79.16 02/25/2024 22:50:10 70.13,-166.14 79.16 2.07 29
2 02/25/2024 23:40:23 -70.04, 1.35 100.94 02/25/2024 23:39:39 -70.06, 1.40 100.92 3.22 44
3 02/28/2024 14:15:56 -70.46, 141.84 101.48 02/28/2024 14:17:08 -70.35, 142.42 101.63 24.79 72
4 02/28/2024 15:06:35 70.07, -50.25 78.11 02/28/2024 15:06:38 70.08, -50.32 78.12 2.79 3
5 02/28/2024 15:57:17 -69.99, 117.19 102.00 02/28/2024 15:56:07 -70.02, 117.23 101.96 3.38 70
6 03/02/2024 06:32:45 -70.16,-101.91 102.82 03/02/2024 06:33:38 -70.17,-101.96 102.82 2.22 53
7 03/02/2024 07:23:30 70.09, 65.50 77.10 03/02/2024 07:23:05 70.07, 65.54 77.07 3.26 25
8 03/02/2024 08:13:56 -69.16,-125.82 103.90 03/02/2024 08:12:49 -69.18,-128.03 103.78 87.45 67
9 03/04/2024 21:59:14 71.16,-155.08 77.23 03/04/2024 22:00:19 71.06,-152.37 77.01 98.45 65
10 03/04/2024 22:49:38 -70.13, 13.92 103.89 03/04/2024 22:50:04 -70.13, 13.87 103.90 1.85 26
11 03/04/2024 23:40:22 70.01,-178.60 75.98 03/04/2024 23:39:31 70.02,-178.64 76.00 1.67 51
12 03/07/2024 14:15:50 70.20, -37.73 75.16 03/07/2024 14:17:00 70.22, -37.74 75.17 2.60 70
13 03/07/2024 15:06:32 -70.10, 129.73 104.96 03/07/2024 15:06:30 -70.11, 129.73 104.96 0.69 2
14 03/07/2024 15:57:12 69.78, -62.47 74.69 03/07/2024 15:56:00 69.83, -63.01 74.77 21.33 72



Historial Predications of SNOs between NOAA-20 and LANDSAT-8
